K1YMI Weather Reports


time (UTC)temp
F
wind
direction
speed
knots
gust
knots
rain 1hr
in
rain 24hr
in
rain mn
in
humidity
%
barometer
mb
20260504150515 29 249 3.5 6.1 0.00 0.00 0.00
20260504140516 27 265 4.3 7.8 0.00 0.00 0.00
20260504130536 27 260 4.3 8.7 0.00 0.00 0.00
20260504110535 21 0.0 0.0 0.00 0.00 0.00 100 1004.7
20260504100515 17 256 0.9 3.5 0.00 0.00 0.00
20260504081515 19 0.0 0.0 0.00 0.00 0.00
20260504080515 19 0.0 0.0 0.00 0.00 0.00 100 1004.6
20260504050536 22 0.0 0.0 0.00 0.00 0.00 100 1005.5
20260504045536 22 0.0 0.0 0.00 0.00 0.00 100 1005.6
20260504044515 22 0.0 0.0 0.00 0.00 0.00 100 1005.8
20260504043515 22 115 0.0 0.9 0.00 0.00 0.00 100 1006.0
20260504042516 22 0.0 0.0 0.00 0.00 0.00 100 1006.0
20260504041516 22 318 1.7 1.7 0.00 0.00 0.00 99 1006.2
20260504040516 23 0.0 0.0 0.00 0.00 0.00 97 1006.0
20260504035535 23 82 0.9 2.6 0.00 0.00 0.00 92 1006.0
20260504034515 23 0.0 0.0 0.00 0.00 0.00 92 1006.4
20260504033535 23 0.0 0.0 0.00 0.00 0.00 36 1006.7
20260504032516 23 259 0.0 0.9 0.00 0.00 0.00 100 1006.5
20260504031516 23 268 1.7 3.5 0.00 0.00 0.00 100 1006.9
20260504030536 23 264 4.3 7.8 0.00 0.00 0.00 100 1007.0
20260504025515 23 268 4.3 7.8 0.00 0.00 0.00 100 1007.1
20260504024515 24 272 3.5 6.1 0.00 0.00 0.00 100 1007.0
20260504023515 24 276 2.6 5.2 0.00 0.00 0.00 100 1007.0
20260504022516 24 277 3.5 7.0 0.00 0.00 0.00 100 1006.9
20260504021515 24 274 2.6 4.3 0.00 0.00 0.00 100 1006.8
20260504020515 24 283 1.7 5.2 0.00 0.00 0.00 100 1006.7
20260504015515 24 274 2.6 8.7 0.00 0.00 0.00 100 1006.7
20260504014515 24 272 2.6 4.3 0.00 0.00 0.00 100 1006.7
20260504013515 24 266 3.5 4.3 0.00 0.00 0.00 100 1006.7
20260504012515 24 271 3.5 5.2 0.00 0.00 0.00 100 1006.7
20260504011515 25 272 4.3 7.8 0.00 0.00 0.00 100 1006.6
20260504010515 25 277 5.2 10.4 0.00 0.00 0.00 100 1006.6
20260504005515 25 276 6.1 13.0 0.00 0.00 0.00 100 1006.7
20260504004535 25 263 6.1 12.2 0.00 0.00 0.00 100 1006.8
20260504003516 25 263 4.3 6.1 0.00 0.00 0.00 100 1006.6
20260504002515 24 262 4.3 5.2 0.00 0.00 0.00 100 1006.5
20260504001515 25 259 5.2 7.8 0.00 0.00 0.00 100 1006.3
20260504000515 25 263 3.5 5.2 0.00 0.00 0.00 100 1006.2
20260503235535 25 261 5.2 7.8 0.00 0.00 0.00 100 1006.1
20260503234535 25 258 5.2 8.7 0.00 0.00 0.00 100 1006.0
20260503233515 26 263 5.2 10.4 0.00 0.00 0.00
20260503232515 26 267 7.0 13.0 0.00 0.00 0.00
20260503231515 26 250 9.6 14.8 0.00 0.00 0.00
20260503230515 26 260 7.8 14.8 0.00 0.00 0.00
20260503225535 26 258 7.8 12.2 0.00 0.00 0.00
20260503224515 26 262 6.1 11.3 0.00 0.00 0.00
20260503223555 27 250 10.4 16.5 0.00 0.00 0.00
20260503222515 27 253 7.0 11.3 0.00 0.00 0.00
20260503221515 27 262 9.6 17.4 0.00 0.00 0.00
20260503220536 28 253 10.4 19.1 0.00 0.00 0.00
20260503215515 27 252 8.7 15.6 0.00 0.00 0.00
20260503214515 28 253 8.7 16.5 0.00 0.00 0.00
20260503213556 26 249 10.4 19.1 0.00 0.00 0.00
20260503212515 26 255 9.6 15.6 0.00 0.00 0.00
20260503211515 28 251 10.4 18.2 0.00 0.00 0.00
20260503210556 28 259 11.3 17.4 0.00 0.00 0.00
20260503205515 28 261 8.7 18.2 0.00 0.00 0.00
20260503204535 27 258 8.7 15.6 0.00 0.00 0.00
20260503203515 28 257 8.7 18.2 0.00 0.00 0.00
20260503202515 28 256 9.6 20.0 0.00 0.00 0.00
20260503201536 29 250 8.7 16.5 0.00 0.00 0.00
20260503200515 28 264 7.0 15.6 0.00 0.00 0.00
20260503195515 28 258 8.7 17.4 0.00 0.00 0.00
20260503194536 28 247 10.4 19.1 0.00 0.00 0.00
20260503193515 28 256 9.6 17.4 0.00 0.00 0.00
20260503192515 28 258 8.7 20.9 0.00 0.00 0.00
20260503191515 27 248 11.3 19.1 0.00 0.00 0.00
20260503190515 27 265 9.6 17.4 0.00 0.00 0.00
20260503185515 27 255 8.7 16.5 0.00 0.00 0.00
20260503184515 27 251 11.3 19.1 0.00 0.00 0.00
20260503183516 27 253 8.7 14.8 0.00 0.00 0.00
20260503182535 27 246 10.4 19.1 0.00 0.00 0.00
20260503181515 26 245 9.6 20.0 0.00 0.00 0.00
20260503180515 27 250 9.6 14.8 0.00 0.00 0.00
20260503175516 26 249 11.3 17.4 0.00 0.00 0.00
20260503174515 26 254 8.7 13.9 0.00 0.00 0.00
20260503173515 26 251 8.7 14.8 0.00 0.00 0.00
20260503172536 26 257 6.1 9.6 0.00 0.00 0.00
20260503171515 25 262 7.0 13.0 0.00 0.00 0.00
20260503170515 26 270 4.3 9.6 0.00 0.00 0.00